Location: Ellingshausen
(50.5460°N, 10.4723°E)
Time: 07:24:37
(UTC+00:00)

SMAP - Pass Details

Date: 18 January 2026
Orbit: 682 x 683 km, 98.1° (Epoch: 19 February)

Event Time Altitude Azimuth Distance (km) Brightness Sun altitude
Rises 05:12:55 0° 19° (NNE) 3,059 6.5 -18.1°
Reaches altitude 10° 05:15:17 10° 26° (NNE) 2,139 5.8 -17.8°
Maximum altitude 05:19:43 42° 98° (E) 974 4.4 -17.1°
Drops below altitude 10° 05:24:08 10° 170° (S) 2,121 5.9 -16.4°
Sets 05:26:27 0° 177° (S) 3,032 6.6 -16.0°
